Weather History for New York JFK, NY

Change the Weather History Date:

Saturday, May 4, 2013

  Actual Average Record
Temperature  
Mean Temperature 55 °F 57 °F  
Max Temperature 64 °F 65 °F 88 °F (1965)
Min Temperature 45 °F 49 °F 42 °F (1967)
Degree Days  
Heating Degree Days 10 8  
Month to date heating degree days 43 35  
Since 1 July heating degree days 4563 4686  
Cooling Degree Days 0 0  
Month to date cooling degree days 0 0  
Year to date cooling degree days 0 3  
Growing Degree Days 5 (Base 50)    
Moisture  
Dew Point 41 °F    
Average Humidity 64    
Maximum Humidity 86    
Minimum Humidity 42    
Precipitation  
Precipitation 0.00 in 0.12 in 1.08 in (1975)
Month to date precipitation 0.00 0.45  
Year to date precipitation 9.22 13.85  
Snow  
Snow 0.00 in 0.00 in - ()
Month to date snowfall 0.0 0.0  
Since 1 July snowfall 17.6 23.8  
Snow Depth 0.00 in    
Sea Level Pressure  
Sea Level Pressure 30.31 in    
Wind  
Wind Speed 9 mph (East)    
Max Wind Speed 17 mph    
Max Gust Speed 21 mph    
Visibility 10 miles    
Events      
T = Trace of Precipitation, MM = Missing Value Source: NWS Daily Summary

Daily Weather History Graph

Daily Weather History Graph

Search for Another Location

Airport:

Trip Planner

Search our weather history database for the weather conditions in past years. The results will help you decide how hot, cold, wet, or windy it might be!

Date:

Astronomy

May. 04, 2013 Rise Set
Actual Time 5:49 AM EDT 7:54 PM EDT
Civil Twilight 5:19 AM EDT 8:24 PM EDT
Nautical Twilight 4:43 AM EDT 9:01 PM EDT
Astronomical Twilight 4:03 AM EDT 9:41 PM EDT
Moon 2:48 AM EDT (5/4) 2:48 PM EDT (5/4)
Length of Visible Light 15h 04m
Length of Day
14h 04m
Waning Crescent, 27% of the Moon is Illuminated
May 4
Waning Crescent
May 9
New
May 18
First Quarter
May 25
Full
May 31
Last Quarter

Hourly Weather History & Observations

Time (EDT) Temp. Windchill Dew Point Humidity Pressure Visibility Wind Dir Wind Speed Gust Speed Precip Events Conditions
12:51 AM 48.0 °F - 42.1 °F 80% 30.38 in 10.0 mi Calm Calm - N/A   Scattered Clouds
1:51 AM 48.0 °F - 43.0 °F 83% 30.36 in 10.0 mi North 3.5 mph - N/A   Scattered Clouds
2:51 AM 48.0 °F - 43.0 °F 83% 30.33 in 10.0 mi Calm Calm - N/A   Scattered Clouds
3:51 AM 48.0 °F - 42.1 °F 80% 30.32 in 10.0 mi North 3.5 mph - N/A   Partly Cloudy
4:51 AM 46.9 °F - 42.1 °F 83% 30.31 in 10.0 mi NNE 4.6 mph - N/A   Partly Cloudy
5:51 AM 46.9 °F - 42.1 °F 83% 30.31 in 10.0 mi North 4.6 mph - N/A   Partly Cloudy
6:51 AM 50.0 °F - 45.0 °F 83% 30.32 in 10.0 mi North 4.6 mph - N/A   Clear
7:51 AM 54.0 °F - 43.0 °F 66% 30.32 in 10.0 mi ENE 10.4 mph - N/A   Partly Cloudy
8:51 AM 57.0 °F - 42.1 °F 57% 30.32 in 10.0 mi ENE 9.2 mph - N/A   Partly Cloudy
9:51 AM 61.0 °F - 37.0 °F 41% 30.32 in 10.0 mi ENE 9.2 mph - N/A   Clear
10:51 AM 63.0 °F - 39.0 °F 41% 30.32 in 10.0 mi SSE 8.1 mph - N/A   Clear
11:51 AM 59.0 °F - 44.1 °F 58% 30.31 in 10.0 mi SSE 12.7 mph - N/A   Clear
12:51 PM 61.0 °F - 42.1 °F 50% 30.31 in 10.0 mi ESE 12.7 mph - N/A   Partly Cloudy
1:51 PM 60.1 °F - 42.1 °F 51% 30.30 in 10.0 mi SE 13.8 mph - N/A   Partly Cloudy
2:51 PM 57.0 °F - 39.9 °F 53% 30.30 in 10.0 mi SE 12.7 mph 20.7 mph N/A   Partly Cloudy
3:51 PM 55.9 °F - 41.0 °F 57% 30.30 in 10.0 mi SE 15.0 mph - N/A   Partly Cloudy
4:51 PM 54.0 °F - 41.0 °F 62% 30.29 in 10.0 mi SE 12.7 mph - N/A   Partly Cloudy
5:51 PM 54.0 °F - 41.0 °F 62% 30.28 in 10.0 mi ESE 12.7 mph - N/A   Partly Cloudy
6:51 PM 51.1 °F - 39.9 °F 66% 30.29 in 10.0 mi SE 12.7 mph - N/A   Partly Cloudy
7:51 PM 50.0 °F - 39.9 °F 68% 30.29 in 10.0 mi ESE 12.7 mph - N/A   Partly Cloudy
8:51 PM 48.9 °F - 39.9 °F 71% 30.30 in 10.0 mi East 10.4 mph - N/A   Partly Cloudy
9:51 PM 48.0 °F - 39.0 °F 71% 30.31 in 10.0 mi East 6.9 mph - N/A   Clear
10:51 PM 48.0 °F - 39.9 °F 74% 30.31 in 10.0 mi East 9.2 mph - N/A   Scattered Clouds
11:51 PM 46.0 °F 42.5 °F 39.0 °F 76% 30.31 in 10.0 mi ENE 6.9 mph - N/A   Scattered Clouds